Location: Krasnoyarskiy
(51.1133°N, 71.6497°E)
Time: 23:08:25
(UTC+00:00)

Cosmos 1741 Rocket - Pass Details

Date: 27 September 2022
Orbit: 761 x 782 km, 74.0° (Epoch: 03 December)

Event Time Altitude Azimuth Distance (km) Brightness Sun altitude
Rises 00:12:03 0° 335° (NNW) 3,245 7.1 -9.4°
Reaches altitude 10° 00:14:27 10° 337° (NNW) 2,312 6.4 -9.0°
Maximum altitude 00:19:42 77° 64° (ENE) 788 4.2 -8.2°
Drops below altitude 10° 00:24:54 10° 151° (SSE) 2,290 6.8 -7.4°
Sets 00:27:16 0° 153° (SSE) 3,212 7.5 -7.1°
